Location: Gleizolles
(44.4833°N, 6.7667°E)
Time: 00:44:16
(UTC+00:00)

S-56A Canister/Altair - Pass Details

Date: 28 June 2024
Orbit: 638 x 2488 km, 38.9° (Epoch: 24 July)

Event Time Altitude Azimuth Distance (km) Brightness Sun altitude
Rises 00:42:48 0° 280° (W) 4,992 11.6 -20.6°
Reaches altitude 10° 00:46:09 10° 272° (W) 4,243 11.1 -20.4°
Maximum altitude 00:56:26 35° 213° (SSW) 3,238 10.1 -19.8°
Drops below altitude 10° 01:08:54 10° 156° (SSE) 5,132 11.3 -19.0°
Sets 01:13:29 0° 148° (SSE) 6,142 11.8 -18.7°
